QPF
0.01 0.01 0.00 0.00 0.00 0.00 0.00 0.00 0.00 0.00 0.00 0.00 0.00 0.00 0.00 0.00 0.00 0.00 0.00 0.00 0.00 0.00 0.00 0.00 0.00 0.00 0.00 0.00 0.00 0.00 0.00 0.00 0.00 0.00 0.00 0.00 0.00 0.00 0.00 0.00 0.01 0.01 0.01 0.01
0.00 0.00 0.00 0.00 0.00 0.00 0.00 0.00 0.00 0.00 0.00 0.00 0.00 0.00 0.00 0.00 0.00 0.00 0.00 0.00 0.00 0.00 0.00 0.00 0.00 0.00 0.00 0.00 0.00 0.00 0.00 0.00 0.00 0.00 0.00 0.00 0.00 0.00 0.00 0.01 0.01 0.01 0.00 0.01
0.01 0.00 0.00 0.00 0.00 0.00 0.00 0.00 0.00 0.00 0.00 0.00 0.00 0.00 0.00 0.00 0.00 0.00 0.00 0.00 0.00 0.00 0.00 0.00 0.00 0.00 0.00 0.00 0.00 0.00 0.00 0.00 0.00 0.00 0.00 0.00 0.00 0.00 0.00 0.00 0.00 0.01 0.00 0.01
0.00 0.01 0.01 0.00 0.00 0.00 0.00 0.00 0.00 0.00 0.00 0.00 0.00 0.00 0.00 0.00 0.00 0.00 0.00 0.00 0.00 0.00 0.00 0.00 0.00 0.00 0.00 0.00 0.00 0.00 0.00 0.00 0.00 0.00 0.00 0.00 0.00 0.00 0.00 0.00 0.01 0.01 0.01 0.01
0.01 0.02 0.00 0.00 0.00 0.00 0.00 0.00 0.00 0.00 0.00 0.00 0.00 0.00 0.00 0.00 0.00 0.00 0.00 0.00 0.00 0.00 0.00 0.00 0.00 0.00 0.00 0.00 0.00 0.00 0.00 0.00 0.00 0.00 0.00 0.00 0.00 0.00 0.00 0.00 0.00 0.00 0.01 0.01
0.01 0.01 0.01 0.00 0.00 0.00 0.00 0.00 0.00 0.00 0.00 0.00 0.00 0.00 0.00 0.00 0.00 0.00 0.00 0.00 0.00 0.00 0.00 0.00 0.00 0.00 0.00 0.00 0.00 0.00 0.00 0.00 0.00 0.00 0.00 0.00 0.00 0.00 0.00 0.00 0.00 0.00 0.00 0.00
0.01 0.01 0.01 0.00 0.00 0.00 0.00 0.00 0.00 0.00 0.00 0.00 0.00 0.00 0.00 0.00 0.00 0.00 0.00 0.00 0.00 0.00 0.00 0.00 0.00 0.00 0.00 0.00 0.00 0.00 0.00 0.00 0.00 0.00 0.00 0.00 0.00 0.00 0.00 0.00 0.00 0.00 0.00 0.00
0.02 0.01 0.00 0.00 0.00 0.00 0.00 0.00 0.00 0.00 0.00 0.00 0.00 0.00 0.00 0.00 0.00 0.00 0.00 0.00 0.00 0.00 0.00 0.00 0.00 0.00 0.00 0.00 0.00 0.00 0.00 0.00 0.00 0.00 0.00 0.00 0.00 0.00 0.00 0.00 0.00 0.00 0.00 0.00
0.00 0.00 0.00 0.00 0.00 0.00 0.00 0.00 0.00 0.00 0.00 0.00 0.00 0.00 0.00 0.00 0.00 0.00 0.00 0.00 0.00 0.00 0.00 0.00 0.00 0.00 0.00 0.00 0.00 0.00 0.00 0.00 0.00 0.00 0.00 0.00 0.00 0.00 0.00 0.00 0.00 0.00 0.00 0.00
0.00 0.00 0.00 0.00 0.00 0.00 0.00 0.00 0.00 0.00 0.00 0.00 0.00 0.00 0.00 0.00 0.00 0.00 0.00 0.00 0.00 0.00 0.00 0.00 0.00 0.00 0.00 0.00 0.00 0.00 0.00 0.00 0.00 0.00 0.00 0.00 0.00 0.00 0.00 0.00 0.00 0.00 0.00 0.00
0.00 0.00 0.00 0.00 0.00 0.00 0.00 0.00 0.00 0.00 0.00 0.00 0.00 0.00 0.00 0.00 0.00 0.00 0.00 0.00 0.00 0.00 0.00 0.00 0.00 0.00 0.00 0.00 0.00 0.00 0.00 0.00 0.00 0.00 0.00 0.00 0.00 0.00 0.00 0.00 0.00 0.00 0.00 0.00
0.00 0.00 0.00 0.00 0.00 0.00 0.00 0.00 0.00 0.00 0.00 0.00 0.00 0.00 0.00 0.00 0.00 0.00 0.00 0.00 0.00 0.00 0.00 0.00 0.00 0.00 0.00 0.00 0.00 0.00 0.00 0.00 0.00 0.00 0.00 0.00 0.00 0.00 0.00 0.00 0.00 0.00 0.00 0.00
0.00 0.00 0.00 0.00 0.00 0.00 0.00 0.00 0.00 0.00 0.00 0.00 0.00 0.00 0.00 0.00 0.00 0.00 0.00 0.00 0.00 0.00 0.00 0.00 0.00 0.00 0.00 0.00 0.00 0.00 0.00 0.00 0.00 0.00 0.00 0.00 0.00 0.00 0.00 0.00 0.00 0.00 0.00 0.00
0.00 0.00 0.00 0.00 0.00 0.00 0.00 0.00 0.00 0.00 0.00 0.00 0.00 0.00 0.00 0.00 0.00 0.00 0.00 0.00 0.00 0.00 0.00 0.00 0.00 0.00 0.00 0.00 0.00 0.00 0.00 0.00 0.00 0.00 0.00 0.00 0.00 0.00 0.00 0.00 0.00 0.00 0.00 0.00
0.00 0.00 0.00 0.00 0.00 0.00 0.00 0.00 0.00 0.00 0.00 0.00 0.00 0.00 0.00 0.00 0.00 0.00 0.00 0.00 0.00 0.00 0.00 0.00 0.00 0.00 0.00 0.00 0.00 0.00 0.00 0.00 0.00 0.00 0.00 0.00 0.00 0.00 0.00 0.00 0.00 0.00 0.00 0.00
0.00 0.00 0.00 0.00 0.00 0.00 0.00 0.00 0.00 0.00 0.00 0.00 0.00 0.00 0.00 0.00 0.00 0.00 0.00 0.00 0.00 0.00 0.00 0.00 0.00 0.00 0.00 0.00 0.00 0.00 0.00 0.00 0.00 0.00 0.00 0.00 0.00 0.00 0.00 0.00 0.00 0.00 0.00 0.00
0.00 0.00 0.00 0.00 0.00 0.00 0.00 0.00 0.00 0.00 0.00 0.00 0.00 0.00 0.00 0.00 0.00 0.00 0.00 0.00 0.00 0.00 0.00 0.00 0.00 0.00 0.00 0.00 0.00 0.00 0.00 0.00 0.00 0.00 0.00 0.00 0.00 0.00 0.00 0.00 0.00 0.00 0.00 0.00
0.01 0.01 0.01 0.01 0.00 0.00 0.00 0.00 0.00 0.00 0.00 0.00 0.00 0.00 0.00 0.00 0.00 0.00 0.00 0.00 0.00 0.00 0.00 0.00 0.00 0.00 0.00 0.00 0.00 0.00 0.00 0.00 0.00 0.00 0.00 0.00 0.00 0.00 0.00 0.00 0.00 0.00 0.00 0.00
0.01 0.01 0.01 0.01 0.01 0.01 0.01 0.00 0.00 0.00 0.00 0.00 0.00 0.00 0.00 0.00 0.00 0.00 0.00 0.00 0.00 0.00 0.00 0.00 0.00 0.00 0.00 0.00 0.00 0.00 0.00 0.00 0.00 0.00 0.00 0.00 0.00 0.00 0.00 0.00 0.00 0.00 0.00 0.00
0.01 0.01 0.01 0.01 0.00 0.00 0.00 0.00 0.00 0.00 0.00 0.00 0.00 0.00 0.00 0.00 0.00 0.00 0.00 0.00 0.00 0.00 0.00 0.00 0.00 0.00 0.00 0.00 0.00 0.00 0.00 0.00 0.00 0.00 0.00 0.00 0.00 0.00 0.00 0.00 0.00 0.00 0.00 0.00
0.01 0.01 0.01 0.01 0.01 0.00 0.00 0.00 0.00 0.00 0.00 0.00 0.00 0.00 0.00 0.00 0.00 0.00 0.00 0.00 0.00 0.00 0.00 0.00 0.00 0.01 0.01 0.01 0.01 0.01 0.00 0.01 0.01 0.00 0.00 0.00 0.00 0.00 0.00 0.00 0.00 0.00 0.00 0.00
0.01 0.01 0.01 0.01 0.01 0.00 0.00 0.00 0.00 0.00 0.00 0.00 0.01 0.01 0.01 0.01 0.01 0.01 0.01 0.01 0.01 0.01 0.00 0.00 0.01 0.01 0.01 0.01 0.01 0.01 0.00 0.00 0.00 0.01 0.01 0.00 0.00 0.00 0.00 0.00 0.00 0.00 0.00 0.00
0.01 0.01 0.01 0.01 0.01 0.00 0.00 0.00 0.00 0.00 0.00 0.00 0.01 0.01 0.02 0.02 0.02 0.02 0.02 0.02 0.02 0.02 0.02 0.02 0.02 0.02 0.02 0.02 0.01 0.01 0.01 0.01 0.00 0.00 0.00 0.00 0.00 0.00 0.00 0.00 0.00 0.00 0.00 0.00
0.01 0.01 0.01 0.01 0.01 0.01 0.00 0.00 0.00 0.00 0.00 0.00 0.01 0.01 0.01 0.02 0.02 0.02 0.02 0.02 0.02 0.02 0.02 0.02 0.02 0.03 0.03 0.03 0.03 0.03 0.03 0.02 0.02 0.01 0.01 0.01 0.01 0.01 0.01 0.00 0.00 0.00 0.00 0.00
0.01 0.02 0.01 0.01 0.02 0.01 0.01 0.01 0.01 0.01 0.01 0.01 0.01 0.01 0.01 0.01 0.01 0.02 0.02 0.02 0.02 0.03 0.03 0.03 0.03 0.03 0.02 0.03 0.03 0.03 0.03 0.03 0.03 0.03 0.03 0.03 0.03 0.02 0.02 0.01 0.01 0.01 0.00 0.00
0.01 0.01 0.01 0.01 0.01 0.02 0.02 0.02 0.01 0.01 0.00 0.00 0.01 0.01 0.01 0.01 0.01 0.01 0.01 0.02 0.02 0.02 0.03 0.03 0.03 0.02 0.02 0.02 0.02 0.02 0.02 0.01 0.01 0.01 0.01 0.01 0.01 0.01 0.01 0.01 0.01 0.01 0.01 0.00
0.01 0.01 0.01 0.01 0.01 0.02 0.02 0.02 0.01 0.01 0.01 0.01 0.01 0.01 0.02 0.02 0.02 0.02 0.02 0.01 0.02 0.02 0.02 0.03 0.03 0.03 0.02 0.02 0.02 0.02 0.01 0.01 0.01 0.01 0.01 0.01 0.01 0.01 0.01 0.01 0.01 0.01 0.01 0.01
MSLP
1010.56 1010.56 1010.56 1010.58 1010.61 1010.63 1010.61 1010.50 1010.29 1009.93 1009.45 1008.85 1008.18 1007.50 1006.87 1006.33 1005.95 1005.73 1005.68 1005.79 1006.02 1006.34 1006.72 1007.12 1007.53 1007.94 1008.34 1008.75 1009.16 1009.59 1010.02 1010.45 1010.85 1011.22 1011.53 1011.78 1011.95 1012.06 1012.10 1012.10 1012.08 1012.04 1012.00 1011.97
1010.71 1010.69 1010.64 1010.56 1010.46 1010.33 1010.17 1009.96 1009.67 1009.31 1008.86 1008.35 1007.79 1007.22 1006.69 1006.24 1005.88 1005.65 1005.55 1005.57 1005.71 1005.94 1006.25 1006.61 1007.01 1007.44 1007.90 1008.37 1008.86 1009.36 1009.85 1010.33 1010.76 1011.15 1011.46 1011.71 1011.87 1011.97 1012.01 1012.00 1011.97 1011.92 1011.87 1011.83
1010.87 1010.84 1010.74 1010.57 1010.36 1010.10 1009.82 1009.51 1009.16 1008.79 1008.37 1007.93 1007.48 1007.03 1006.60 1006.21 1005.89 1005.64 1005.49 1005.43 1005.47 1005.60 1005.82 1006.12 1006.49 1006.92 1007.41 1007.93 1008.49 1009.04 1009.58 1010.09 1010.56 1010.95 1011.27 1011.51 1011.67 1011.76 1011.79 1011.78 1011.74 1011.69 1011.64 1011.59
1010.99 1010.95 1010.80 1010.56 1010.25 1009.90 1009.52 1009.13 1008.74 1008.36 1007.98 1007.61 1007.25 1006.90 1006.56 1006.24 1005.95 1005.69 1005.49 1005.35 1005.29 1005.32 1005.44 1005.67 1005.99 1006.41 1006.90 1007.45 1008.04 1008.63 1009.21 1009.74 1010.21 1010.61 1010.93 1011.17 1011.32 1011.41 1011.45 1011.44 1011.40 1011.35 1011.30 1011.25
1011.02 1010.94 1010.74 1010.44 1010.07 1009.64 1009.20 1008.76 1008.35 1007.97 1007.64 1007.34 1007.06 1006.80 1006.54 1006.28 1006.01 1005.75 1005.51 1005.30 1005.16 1005.09 1005.13 1005.28 1005.55 1005.93 1006.41 1006.96 1007.55 1008.16 1008.74 1009.29 1009.77 1010.16 1010.48 1010.71 1010.87 1010.96 1011.01 1011.01 1010.99 1010.95 1010.91 1010.86
1010.90 1010.76 1010.51 1010.16 1009.74 1009.28 1008.80 1008.35 1007.95 1007.60 1007.31 1007.08 1006.88 1006.70 1006.51 1006.30 1006.06 1005.80 1005.53 1005.28 1005.06 1004.92 1004.88 1004.96 1005.17 1005.50 1005.95 1006.48 1007.06 1007.66 1008.24 1008.78 1009.25 1009.65 1009.96 1010.20 1010.37 1010.48 1010.54 1010.57 1010.57 1010.55 1010.52 1010.48
1010.60 1010.37 1010.06 1009.68 1009.24 1008.77 1008.31 1007.88 1007.51 1007.21 1006.98 1006.81 1006.68 1006.57 1006.44 1006.28 1006.07 1005.82 1005.53 1005.24 1004.98 1004.78 1004.68 1004.69 1004.84 1005.13 1005.53 1006.03 1006.58 1007.16 1007.73 1008.26 1008.73 1009.12 1009.45 1009.70 1009.89 1010.03 1010.13 1010.19 1010.22 1010.23 1010.22 1010.19
1010.12 1009.81 1009.45 1009.05 1008.61 1008.17 1007.75 1007.37 1007.05 1006.82 1006.65 1006.55 1006.49 1006.43 1006.35 1006.22 1006.04 1005.79 1005.50 1005.18 1004.88 1004.64 1004.48 1004.44 1004.54 1004.77 1005.13 1005.58 1006.11 1006.66 1007.21 1007.73 1008.21 1008.62 1008.96 1009.25 1009.49 1009.67 1009.82 1009.93 1010.01 1010.05 1010.06 1010.04
1009.54 1009.15 1008.75 1008.34 1007.94 1007.55 1007.20 1006.89 1006.65 1006.49 1006.39 1006.34 1006.32 1006.30 1006.25 1006.14 1005.97 1005.71 1005.41 1005.07 1004.74 1004.45 1004.25 1004.16 1004.20 1004.38 1004.69 1005.10 1005.59 1006.12 1006.66 1007.19 1007.68 1008.13 1008.52 1008.86 1009.16 1009.42 1009.64 1009.81 1009.95 1010.03 1010.07 1010.06
1008.95 1008.50 1008.09 1007.71 1007.35 1007.04 1006.76 1006.54 1006.38 1006.29 1006.24 1006.24 1006.24 1006.23 1006.18 1006.06 1005.87 1005.60 1005.26 1004.89 1004.52 1004.19 1003.94 1003.79 1003.78 1003.90 1004.15 1004.52 1004.98 1005.49 1006.03 1006.58 1007.10 1007.61 1008.07 1008.50 1008.89 1009.24 1009.54 1009.80 1010.00 1010.14 1010.21 1010.23
1008.45 1007.99 1007.59 1007.25 1006.97 1006.73 1006.55 1006.41 1006.32 1006.28 1006.27 1006.27 1006.28 1006.25 1006.17 1006.01 1005.78 1005.46 1005.08 1004.65 1004.23 1003.84 1003.52 1003.31 1003.23 1003.29 1003.48 1003.80 1004.22 1004.72 1005.26 1005.84 1006.42 1006.99 1007.55 1008.08 1008.58 1009.04 1009.46 1009.81 1010.10 1010.31 1010.44 1010.49
1008.12 1007.68 1007.33 1007.06 1006.86 1006.71 1006.60 1006.53 1006.50 1006.49 1006.49 1006.48 1006.45 1006.38 1006.24 1006.02 1005.72 1005.33 1004.88 1004.38 1003.88 1003.41 1003.02 1002.73 1002.56 1002.54 1002.65 1002.91 1003.29 1003.77 1004.32 1004.93 1005.57 1006.23 1006.89 1007.53 1008.16 1008.75 1009.28 1009.75 1010.14 1010.44 1010.64 1010.74
1007.96 1007.59 1007.31 1007.12 1007.00 1006.93 1006.89 1006.88 1006.87 1006.87 1006.86 1006.82 1006.74 1006.60 1006.39 1006.09 1005.70 1005.23 1004.69 1004.12 1003.53 1002.97 1002.48 1002.09 1001.83 1001.71 1001.74 1001.93 1002.25 1002.70 1003.24 1003.87 1004.57 1005.30 1006.05 1006.82 1007.57 1008.28 1008.94 1009.53 1010.04 1010.43 1010.72 1010.89
1007.93 1007.65 1007.47 1007.36 1007.32 1007.31 1007.32 1007.34 1007.35 1007.34 1007.30 1007.22 1007.09 1006.88 1006.59 1006.21 1005.75 1005.20 1004.58 1003.91 1003.24 1002.59 1002.00 1001.51 1001.14 1000.92 1000.85 1000.95 1001.20 1001.59 1002.12 1002.75 1003.47 1004.26 1005.09 1005.95 1006.80 1007.63 1008.41 1009.12 1009.73 1010.24 1010.62 1010.89
1007.95 1007.78 1007.69 1007.66 1007.68 1007.72 1007.77 1007.80 1007.81 1007.78 1007.72 1007.60 1007.41 1007.15 1006.81 1006.37 1005.85 1005.24 1004.56 1003.83 1003.09 1002.36 1001.68 1001.09 1000.62 1000.29 1000.12 1000.12 1000.29 1000.61 1001.09 1001.69 1002.41 1003.21 1004.08 1005.00 1005.92 1006.84 1007.71 1008.51 1009.23 1009.84 1010.33 1010.70
1007.95 1007.87 1007.86 1007.90 1007.96 1008.03 1008.09 1008.12 1008.12 1008.09 1008.00 1007.85 1007.64 1007.35 1006.98 1006.53 1005.98 1005.35 1004.65 1003.90 1003.12 1002.35 1001.61 1000.96 1000.41 999.98 999.72 999.62 999.69 999.93 1000.32 1000.86 1001.53 1002.31 1003.18 1004.10 1005.05 1006.00 1006.93 1007.80 1008.60 1009.30 1009.89 1010.36
1007.87 1007.87 1007.91 1007.98 1008.07 1008.14 1008.19 1008.22 1008.21 1008.16 1008.06 1007.92 1007.71 1007.43 1007.08 1006.65 1006.13 1005.53 1004.85 1004.12 1003.35 1002.58 1001.84 1001.15 1000.56 1000.08 999.73 999.55 999.53 999.67 999.97 1000.42 1001.01 1001.72 1002.52 1003.40 1004.32 1005.26 1006.19 1007.09 1007.93 1008.69 1009.36 1009.93
1007.73 1007.77 1007.84 1007.91 1007.98 1008.04 1008.07 1008.07 1008.05 1007.99 1007.90 1007.77 1007.59 1007.36 1007.06 1006.69 1006.24 1005.72 1005.12 1004.47 1003.77 1003.05 1002.35 1001.68 1001.09 1000.59 1000.21 999.96 999.86 999.91 1000.11 1000.46 1000.93 1001.53 1002.23 1003.01 1003.86 1004.74 1005.63 1006.50 1007.35 1008.13 1008.85 1009.49
1007.61 1007.65 1007.70 1007.74 1007.77 1007.77 1007.76 1007.73 1007.68 1007.61 1007.53 1007.43 1007.29 1007.12 1006.91 1006.63 1006.29 1005.88 1005.40 1004.86 1004.28 1003.67 1003.05 1002.46 1001.93 1001.46 1001.08 1000.81 1000.67 1000.65 1000.76 1000.99 1001.34 1001.81 1002.37 1003.02 1003.75 1004.52 1005.32 1006.13 1006.93 1007.71 1008.44 1009.11
1007.62 1007.61 1007.60 1007.58 1007.53 1007.47 1007.39 1007.30 1007.22 1007.13 1007.05 1006.97 1006.88 1006.77 1006.63 1006.46 1006.23 1005.95 1005.61 1005.21 1004.77 1004.30 1003.82 1003.35 1002.91 1002.52 1002.19 1001.95 1001.79 1001.73 1001.77 1001.91 1002.14 1002.48 1002.90 1003.40 1003.98 1004.61 1005.30 1006.01 1006.74 1007.47 1008.18 1008.86
1007.83 1007.76 1007.66 1007.55 1007.40 1007.25 1007.08 1006.92 1006.77 1006.65 1006.54 1006.46 1006.40 1006.34 1006.27 1006.18 1006.05 1005.89 1005.68 1005.43 1005.14 1004.83 1004.50 1004.17 1003.87 1003.59 1003.35 1003.16 1003.04 1002.97 1002.97 1003.04 1003.18 1003.39 1003.68 1004.04 1004.47 1004.97 1005.52 1006.12 1006.75 1007.41 1008.08 1008.74
1008.28 1008.12 1007.93 1007.71 1007.45 1007.18 1006.91 1006.66 1006.44 1006.25 1006.11 1006.00 1005.93 1005.88 1005.85 1005.81 1005.75 1005.68 1005.57 1005.45 1005.29 1005.13 1004.95 1004.77 1004.61 1004.46 1004.34 1004.24 1004.17 1004.14 1004.14 1004.17 1004.25 1004.38 1004.56 1004.80 1005.10 1005.46 1005.89 1006.38 1006.92 1007.49 1008.10 1008.72
1008.92 1008.68 1008.39 1008.05 1007.68 1007.30 1006.92 1006.57 1006.25 1005.99 1005.78 1005.62 1005.52 1005.45 1005.40 1005.37 1005.35 1005.32 1005.28 1005.23 1005.18 1005.13 1005.08 1005.04 1005.01 1004.99 1004.99 1005.00 1005.01 1005.04 1005.07 1005.11 1005.17 1005.24 1005.35 1005.51 1005.71 1005.97 1006.30 1006.69 1007.14 1007.65 1008.20 1008.77
1009.62 1009.30 1008.92 1008.49 1008.01 1007.53 1007.05 1006.60 1006.19 1005.85 1005.56 1005.34 1005.17 1005.05 1004.97 1004.91 1004.87 1004.84 1004.82 1004.81 1004.82 1004.84 1004.88 1004.94 1005.02 1005.11 1005.22 1005.33 1005.44 1005.54 1005.62 1005.70 1005.77 1005.84 1005.93 1006.04 1006.18 1006.38 1006.64 1006.96 1007.35 1007.80 1008.29 1008.83
1010.20 1009.83 1009.38 1008.86 1008.31 1007.75 1007.19 1006.66 1006.19 1005.77 1005.41 1005.12 1004.88 1004.70 1004.55 1004.44 1004.35 1004.29 1004.25 1004.23 1004.25 1004.30 1004.39 1004.51 1004.66 1004.84 1005.03 1005.23 1005.42 1005.60 1005.76 1005.89 1006.01 1006.11 1006.20 1006.31 1006.44 1006.61 1006.84 1007.12 1007.47 1007.88 1008.34 1008.84
1010.48 1010.07 1009.57 1009.02 1008.42 1007.81 1007.21 1006.64 1006.12 1005.66 1005.25 1004.91 1004.62 1004.37 1004.17 1003.99 1003.84 1003.72 1003.64 1003.58 1003.57 1003.61 1003.71 1003.85 1004.03 1004.26 1004.51 1004.77 1005.04 1005.29 1005.52 1005.72 1005.89 1006.04 1006.17 1006.31 1006.46 1006.64 1006.86 1007.14 1007.47 1007.85 1008.29 1008.78
1010.30 1009.88 1009.37 1008.81 1008.21 1007.59 1006.99 1006.43 1005.91 1005.44 1005.02 1004.66 1004.34 1004.05 1003.80 1003.57 1003.37 1003.19 1003.05 1002.95 1002.89 1002.89 1002.96 1003.09 1003.27 1003.51 1003.79 1004.09 1004.40 1004.71 1005.00 1005.26 1005.50 1005.71 1005.90 1006.08 1006.27 1006.48 1006.73 1007.01 1007.35 1007.73 1008.16 1008.63
Thickness
5734 5742 5744 5742 5742 5744 5740 5739 5730 5736 5742 5752 5762 5765 5768 5769 5768 5765 5763 5761 5758 5754 5752 5749 5748 5745 5742 5738 5735 5731 5725 5720 5715 5712 5708 5704 5700 5697 5694 5691 5688 5685 5681 5678
5732 5743 5745 5741 5745 5745 5744 5744 5743 5743 5744 5762 5768 5769 5767 5767 5765 5761 5760 5760 5759 5756 5753 5749 5747 5743 5740 5737 5735 5731 5725 5719 5715 5711 5707 5702 5699 5696 5693 5689 5687 5684 5681 5677
5718 5735 5736 5728 5745 5746 5745 5748 5745 5737 5746 5760 5759 5760 5761 5763 5762 5760 5759 5759 5758 5757 5754 5752 5749 5745 5739 5737 5734 5730 5724 5718 5714 5710 5705 5701 5699 5695 5691 5688 5686 5683 5680 5676
5717 5720 5704 5735 5763 5759 5750 5749 5753 5751 5754 5757 5757 5761 5765 5765 5761 5759 5759 5758 5758 5757 5756 5754 5752 5748 5743 5738 5733 5728 5722 5717 5713 5708 5704 5700 5696 5692 5690 5688 5684 5681 5679 5675
5711 5706 5716 5738 5754 5754 5744 5739 5750 5749 5751 5754 5759 5758 5756 5762 5762 5760 5759 5758 5758 5757 5756 5753 5751 5747 5742 5736 5731 5725 5720 5716 5711 5707 5702 5698 5694 5691 5689 5686 5683 5681 5678 5674
5707 5698 5699 5727 5750 5760 5747 5726 5745 5747 5744 5746 5746 5731 5737 5754 5756 5756 5756 5755 5754 5754 5752 5748 5747 5745 5738 5733 5727 5721 5718 5714 5710 5706 5701 5696 5693 5690 5688 5685 5682 5680 5676 5673
5700 5697 5712 5734 5747 5746 5715 5715 5737 5741 5739 5737 5733 5732 5741 5749 5749 5749 5749 5749 5749 5747 5744 5743 5742 5739 5733 5728 5724 5721 5717 5713 5708 5703 5699 5695 5691 5688 5686 5683 5680 5677 5673 5670
5701 5694 5702 5733 5734 5722 5719 5732 5732 5732 5732 5730 5730 5734 5737 5739 5739 5740 5740 5741 5740 5738 5737 5737 5737 5733 5727 5723 5722 5719 5714 5708 5704 5700 5697 5694 5688 5685 5682 5679 5676 5673 5670 5667
5705 5703 5720 5727 5724 5726 5728 5723 5723 5723 5724 5725 5723 5724 5727 5729 5731 5732 5733 5733 5733 5731 5729 5730 5730 5727 5721 5719 5719 5714 5708 5703 5700 5697 5693 5690 5685 5681 5678 5675 5672 5669 5665 5662
5702 5708 5715 5718 5719 5720 5720 5716 5716 5716 5716 5717 5715 5717 5718 5721 5723 5724 5725 5725 5725 5724 5722 5721 5722 5722 5720 5717 5715 5709 5703 5699 5696 5692 5688 5685 5681 5677 5673 5669 5666 5664 5661 5657
5688 5697 5701 5704 5706 5707 5707 5707 5707 5708 5708 5708 5708 5709 5710 5712 5715 5717 5717 5718 5718 5717 5716 5716 5716 5715 5715 5713 5710 5704 5700 5696 5692 5688 5684 5679 5673 5669 5666 5662 5660 5657 5655 5652
5674 5686 5685 5687 5695 5697 5694 5694 5695 5696 5698 5700 5701 5701 5703 5705 5708 5709 5710 5711 5710 5710 5710 5711 5711 5709 5709 5708 5705 5701 5696 5693 5689 5684 5680 5674 5667 5661 5658 5656 5654 5652 5650 5647
5675 5680 5679 5681 5683 5685 5683 5684 5685 5686 5687 5689 5692 5694 5695 5696 5699 5701 5702 5703 5703 5703 5704 5705 5704 5703 5704 5703 5701 5697 5692 5689 5686 5682 5677 5672 5666 5659 5652 5647 5645 5644 5642 5640
5669 5667 5664 5667 5669 5672 5673 5674 5676 5677 5678 5680 5682 5684 5686 5687 5690 5691 5693 5696 5696 5697 5698 5698 5697 5697 5698 5697 5695 5692 5689 5685 5682 5678 5674 5670 5665 5661 5655 5648 5641 5637 5634 5633
5656 5656 5655 5657 5659 5660 5661 5662 5662 5663 5666 5668 5670 5672 5674 5675 5678 5681 5685 5687 5688 5688 5689 5690 5689 5690 5691 5690 5687 5685 5682 5679 5676 5673 5670 5666 5662 5658 5654 5649 5643 5637 5630 5626
5642 5643 5643 5643 5644 5645 5646 5646 5646 5649 5652 5654 5657 5659 5663 5666 5668 5672 5675 5678 5677 5678 5680 5680 5680 5682 5683 5681 5678 5677 5675 5673 5670 5666 5663 5659 5656 5652 5648 5644 5639 5634 5628 5623
5625 5625 5626 5627 5629 5631 5632 5633 5635 5638 5641 5643 5645 5649 5652 5654 5656 5659 5663 5667 5669 5670 5671 5671 5672 5673 5673 5672 5669 5667 5665 5663 5661 5658 5656 5653 5649 5646 5642 5637 5633 5628 5623 5618
5616 5616 5616 5616 5616 5617 5620 5622 5624 5626 5629 5633 5636 5638 5640 5642 5644 5648 5653 5656 5658 5659 5661 5662 5663 5662 5662 5661 5659 5657 5655 5653 5651 5649 5647 5644 5641 5638 5634 5629 5625 5620 5614 5610
5603 5603 5603 5604 5605 5606 5607 5609 5612 5615 5618 5622 5624 5626 5629 5632 5636 5639 5642 5643 5644 5646 5649 5651 5651 5650 5650 5649 5648 5646 5645 5642 5640 5639 5637 5633 5630 5628 5625 5621 5617 5612 5607 5603
5590 5590 5590 5591 5592 5593 5595 5598 5601 5603 5606 5609 5612 5615 5618 5622 5626 5628 5630 5631 5633 5636 5639 5639 5639 5638 5638 5637 5636 5634 5634 5632 5630 5628 5625 5622 5620 5617 5615 5611 5607 5604 5599 5595
5576 5576 5576 5577 5579 5581 5584 5587 5589 5592 5595 5598 5600 5603 5606 5610 5614 5616 5617 5618 5622 5624 5626 5627 5627 5627 5627 5625 5623 5622 5622 5621 5619 5617 5614 5611 5609 5607 5604 5601 5598 5594 5590 5585
5562 5563 5564 5565 5567 5569 5572 5576 5579 5582 5584 5587 5590 5592 5595 5598 5601 5604 5606 5607 5610 5612 5613 5614 5615 5616 5615 5613 5610 5610 5609 5608 5607 5605 5603 5600 5598 5595 5593 5590 5587 5583 5579 5575
5551 5552 5553 5554 5556 5558 5562 5565 5568 5571 5573 5576 5578 5581 5584 5586 5588 5590 5592 5596 5598 5600 5600 5601 5603 5603 5602 5600 5598 5597 5596 5595 5595 5593 5591 5589 5587 5584 5581 5578 5575 5571 5567 5563
5539 5540 5542 5544 5546 5548 5550 5554 5557 5561 5563 5566 5568 5571 5573 5574 5577 5580 5582 5584 5585 5586 5588 5588 5589 5589 5588 5587 5586 5585 5583 5582 5581 5580 5579 5576 5574 5572 5569 5565 5562 5558 5554 5551
5529 5530 5532 5533 5534 5536 5539 5543 5546 5549 5551 5554 5557 5560 5563 5564 5565 5568 5570 5571 5573 5573 5574 5576 5577 5576 5575 5575 5574 5573 5572 5570 5569 5567 5565 5563 5561 5558 5556 5552 5549 5545 5541 5538
5518 5519 5521 5523 5525 5526 5528 5531 5533 5537 5539 5541 5544 5547 5549 5551 5553 5555 5557 5558 5560 5561 5562 5562 5563 5563 5564 5564 5564 5563 5561 5559 5557 5555 5553 5550 5548 5545 5542 5539 5536 5532 5529 5525
5506 5508 5510 5513 5516 5517 5519 5521 5523 5525 5528 5529 5531 5534 5536 5538 5540 5541 5543 5545 5547 5548 5549 5549 5550 5551 5551 5552 5552 5551 5549 5548 5545 5543 5541 5538 5536 5533 5530 5527 5524 5520 5516 5513